Wind_Speed
23 21 20 21 23 24 25 24 23 22 23 24 25 23 23 23 23 24 23 21 21 22 22 21 21 20 19 19 20 20 20 20 20 20 20 20 20 21 21 21 22 23 23 24
26 24 23 23 23 24 26 26 25 24 24 25 26 24 24 24 24 24 23 23 23 23 23 23 23 22 22 21 21 21 21 21 20 20 20 20 21 21 22 22 23 23 24 24
25 24 25 26 25 24 25 25 25 25 25 25 25 25 25 25 26 24 23 23 24 24 23 23 23 24 23 23 22 21 21 21 21 21 21 21 22 22 23 23 23 24 24 24
25 24 26 26 26 26 27 27 27 27 28 26 26 26 25 25 25 25 24 24 24 25 24 24 24 24 24 24 23 22 22 22 22 22 22 22 23 23 24 24 24 24 25 25
26 25 25 25 25 25 27 29 30 30 29 29 28 29 27 27 27 26 26 25 25 25 25 25 25 25 25 25 24 24 24 24 24 24 24 24 24 24 25 25 25 25 25 25
27 26 25 24 24 25 26 30 29 30 31 31 30 30 29 29 29 28 27 27 27 26 26 26 25 26 26 26 26 26 26 26 26 25 25 25 25 26 26 26 26 26 25 26
27 27 26 27 26 27 27 28 28 29 31 32 32 31 31 31 31 29 28 28 28 28 27 27 27 27 27 27 27 27 28 27 27 26 26 26 27 27 27 27 27 27 26 26
27 27 28 28 28 28 29 30 30 30 32 32 32 32 32 33 33 32 30 29 30 30 29 30 29 29 28 28 28 29 29 28 27 27 28 28 28 28 28 29 28 28 27 27
28 29 29 28 29 30 31 31 31 31 32 31 32 32 32 33 34 34 33 32 32 32 31 31 31 30 30 30 30 30 30 30 29 29 29 29 29 29 29 30 30 29 29 28
29 29 28 29 30 31 31 30 29 29 31 31 32 32 33 34 35 36 35 34 34 33 31 31 31 31 31 31 31 30 30 30 31 30 30 30 30 30 30 30 30 30 30 29
29 29 29 30 30 30 30 29 30 31 32 33 32 31 34 35 35 35 35 34 34 33 32 31 31 31 31 32 31 31 32 32 31 31 31 31 31 31 31 31 31 31 31 31
30 30 30 29 31 33 32 30 31 31 32 33 34 33 32 33 33 33 32 33 33 32 31 31 32 32 32 32 32 32 32 32 32 32 32 32 32 32 32 33 33 33 33 33
30 31 32 31 31 30 31 32 31 31 32 33 34 34 34 34 33 32 32 32 31 31 31 31 31 32 32 31 32 32 32 32 32 33 34 34 34 35 35 34 34 34 34 34
31 32 32 33 33 32 31 32 32 32 32 33 33 33 33 32 32 32 32 31 30 31 31 31 32 32 32 32 31 31 32 32 33 33 34 34 36 36 36 35 35 35 35 35
31 31 32 33 32 31 30 31 31 31 31 31 31 31 31 31 31 30 31 31 30 31 31 31 31 32 32 31 31 32 33 33 33 33 34 35 35 35 35 35 35 35 35 34
31 31 31 32 32 32 32 31 31 32 31 30 30 30 31 31 31 31 31 31 30 30 31 31 30 30 30 31 32 33 33 33 33 33 34 35 35 36 35 35 35 35 35 34
31 31 31 32 32 32 32 32 32 31 31 31 31 31 32 32 31 31 32 32 31 31 31 31 31 30 30 31 32 32 33 33 34 34 35 35 35 35 36 35 34 34 34 34
29 30 31 31 32 32 31 31 30 30 31 31 31 31 32 32 32 32 32 32 32 31 32 32 32 32 32 32 32 33 33 34 34 34 34 35 35 35 35 34 34 33 33 32
27 28 29 30 30 30 30 30 30 29 30 30 31 30 31 31 31 31 32 32 32 32 32 32 33 33 33 32 33 34 33 33 33 34 34 35 35 35 34 33 32 32 31 31
26 26 27 28 28 27 28 28 28 28 29 29 30 30 30 30 30 30 31 31 31 32 32 32 32 32 32 32 32 32 32 32 32 33 33 33 33 33 33 32 32 32 31 32
24 24 25 26 26 26 26 27 27 28 28 28 28 29 30 30 30 30 30 30 30 30 30 30 31 30 31 31 30 30 31 31 32 32 32 32 32 32 32 32 32 32 32 33
22 23 23 23 24 25 25 25 26 26 27 27 27 28 28 29 29 29 29 29 29 29 29 29 29 29 29 29 29 30 30 31 31 32 32 32 31 31 31 31 31 32 32 32
21 21 21 21 21 22 23 23 23 23 24 25 26 27 27 28 28 27 28 28 29 29 29 28 28 28 28 28 29 29 30 31 30 31 31 31 31 31 31 30 31 31 31 31
19 20 20 20 20 20 21 22 22 22 22 23 23 24 26 26 26 27 27 27 27 27 27 27 27 27 28 28 29 29 29 29 29 28 28 29 29 29 29 29 30 30 30 30
18 18 18 18 19 19 20 20 20 20 21 21 21 22 23 25 26 26 26 26 26 25 25 26 26 27 27 28 28 29 28 27 27 27 27 27 27 27 27 28 29 29 30 31
17 17 18 18 18 18 18 17 17 18 19 20 20 21 21 23 24 24 25 25 26 25 25 26 26 26 26 26 26 25 25 25 25 25 26 26 26 27 28 28 29 30 30 30
16 16 16 16 16 16 16 17 17 17 18 19 19 19 19 20 21 21 21 22 23 23 23 23 24 24 24 24 23 24 24 24 25 25 25 26 26 26 27 28 28 29 29 29
Wind_Direction
231 228 232 241 242 238 238 237 241 244 250 256 259 266 271 274 274 271 271 273 273 272 273 274 275 275 276 279 281 282 282 285 289 289 291 292 293 294 293 292 292 292 291 292
233 230 232 238 240 243 243 242 243 244 251 256 263 263 265 269 272 273 271 271 271 272 273 274 274 274 275 277 279 280 282 283 285 287 289 292 294 295 298 297 296 295 295 294
234 234 237 239 237 240 247 248 249 249 252 255 259 264 265 267 270 271 270 270 270 270 272 274 275 275 274 276 278 279 279 280 281 283 285 289 291 294 296 297 298 297 296 296
235 234 240 244 246 244 245 247 250 251 252 256 261 264 266 265 268 271 271 270 269 270 272 274 276 275 275 276 278 278 278 279 280 283 285 287 290 292 294 296 296 296 296 295
240 239 241 242 245 248 250 249 249 251 254 255 259 264 267 267 269 270 270 271 270 270 271 274 275 274 275 276 276 276 277 277 279 283 285 287 288 291 293 294 295 295 296 296
242 243 245 244 246 249 252 252 249 252 255 257 259 262 265 266 268 268 269 270 269 269 270 272 273 274 274 275 275 276 276 277 278 282 284 285 286 289 290 293 294 295 295 296
244 245 247 249 249 249 249 252 254 255 256 258 259 262 265 265 266 268 269 269 269 269 270 271 272 273 273 274 275 276 276 276 276 280 281 283 285 286 288 291 293 293 294 295
246 247 250 250 250 251 252 254 255 258 260 260 261 260 263 263 265 266 267 267 268 269 269 270 270 272 273 273 274 275 275 275 275 278 280 281 283 285 288 290 292 292 292 293
246 247 248 250 250 252 252 255 257 258 259 261 261 261 262 263 264 266 266 266 268 268 268 269 269 270 271 272 272 273 273 274 275 278 280 282 283 285 286 289 290 290 290 290
248 251 250 250 252 252 253 255 258 258 259 261 262 263 263 264 265 266 266 267 268 268 268 268 268 270 271 271 272 272 273 274 275 276 278 279 281 283 285 287 288 288 289 289
251 254 254 253 254 256 258 258 259 261 260 261 264 265 264 266 266 265 266 268 268 267 267 266 266 268 271 272 272 272 273 274 274 275 276 277 279 282 284 285 286 287 289 289
255 252 255 256 258 259 259 263 263 263 263 263 265 266 265 265 266 265 265 267 268 267 267 266 267 269 271 273 273 272 272 273 274 275 276 277 279 281 283 284 286 287 289 289
259 258 257 258 259 261 262 263 264 265 266 266 267 266 267 267 266 266 266 267 268 267 266 266 267 270 271 272 273 273 273 274 275 275 275 278 279 280 281 283 285 287 288 288
259 259 259 259 260 261 262 263 264 265 267 267 266 266 268 269 268 268 267 266 266 264 265 266 268 269 270 271 272 272 273 274 274 276 277 278 278 279 281 283 283 284 284 285
261 261 262 262 263 262 262 263 264 265 267 266 264 265 267 269 269 267 267 265 264 264 265 266 268 268 269 270 271 272 273 274 274 275 277 279 280 281 282 283 283 283 283 284
261 262 263 262 263 263 261 262 263 266 267 264 264 264 266 268 267 265 264 263 264 265 264 264 267 268 269 270 272 273 274 275 274 275 277 280 281 283 284 285 284 283 285 285
262 263 264 263 263 266 265 263 264 264 265 264 265 265 266 265 265 265 264 262 263 264 265 264 265 268 270 272 273 274 275 276 276 277 279 280 281 282 284 284 283 283 284 285
266 266 265 265 265 266 266 264 264 264 264 265 265 265 265 263 263 262 263 263 262 264 266 266 267 269 272 273 274 276 277 277 277 278 280 281 283 284 284 283 283 282 282 282
270 269 267 266 266 266 267 266 266 266 266 265 264 263 262 262 261 261 261 262 263 264 265 266 267 269 270 271 274 277 276 276 277 279 281 282 283 283 283 283 283 283 282 284
271 270 270 269 267 266 265 265 266 267 267 265 264 262 262 263 261 261 262 261 262 264 266 266 265 267 268 271 274 275 276 277 279 281 281 282 283 283 283 282 282 283 284 285
274 274 273 272 269 267 265 265 267 267 267 266 265 263 263 264 264 265 265 263 263 265 266 266 265 266 269 271 273 274 276 277 279 281 282 282 282 283 283 282 282 284 285 286
277 277 277 275 270 267 266 267 268 267 266 266 265 264 263 263 265 265 265 265 266 268 268 268 268 269 271 273 274 275 277 279 281 282 283 283 283 284 284 283 284 286 286 287
281 280 279 277 274 270 269 268 268 269 268 267 266 265 264 264 264 265 267 268 269 269 269 267 267 268 269 271 274 276 279 280 281 282 283 284 285 284 284 284 285 287 288 289
282 281 280 277 275 273 272 271 269 268 268 269 269 268 266 263 263 267 271 272 272 270 270 269 267 267 268 270 273 276 279 280 281 282 283 284 284 285 285 285 285 287 288 288
281 281 280 279 278 276 274 273 273 272 271 271 271 272 271 268 268 269 270 269 268 269 269 269 270 271 271 273 275 278 279 280 281 283 284 285 284 285 286 286 286 287 289 289
280 283 284 285 283 281 279 277 276 276 275 273 274 275 276 274 272 269 268 267 267 268 268 268 269 271 272 274 276 278 280 282 283 283 285 286 286 286 287 288 288 289 289 289
284 286 287 288 287 284 282 281 281 280 279 277 275 276 276 276 275 273 272 271 269 269 270 271 272 272 274 275 277 279 281 283 283 284 285 285 286 287 288 289 290 290 290 289
Height
5809 5812 5815 5817 5820 5822 5824 5825 5827 5830 5829 5829 5828 5829 5830 5830 5829 5829 5829 5830 5830 5831 5831 5831 5831 5831 5831 5830 5830 5829 5828 5828 5828 5828 5827 5826 5825 5824 5823 5822 5821 5819 5818 5817
5803 5807 5809 5811 5814 5816 5818 5820 5821 5823 5824 5824 5822 5823 5824 5824 5824 5824 5825 5825 5825 5825 5825 5825 5826 5826 5825 5825 5824 5824 5823 5823 5823 5823 5823 5822 5820 5819 5818 5816 5815 5814 5813 5811
5797 5800 5802 5804 5808 5810 5812 5814 5815 5816 5818 5817 5817 5817 5818 5818 5818 5818 5818 5819 5819 5819 5820 5820 5819 5819 5819 5819 5819 5818 5817 5817 5817 5818 5817 5816 5815 5814 5813 5811 5810 5808 5807 5805
5791 5794 5795 5800 5801 5804 5805 5807 5809 5809 5810 5810 5810 5810 5810 5811 5812 5812 5812 5812 5813 5813 5813 5813 5813 5813 5813 5813 5812 5812 5812 5811 5812 5812 5811 5811 5810 5808 5807 5805 5804 5802 5801 5799
5784 5786 5789 5792 5793 5795 5797 5798 5801 5802 5802 5803 5804 5804 5804 5804 5804 5805 5805 5805 5806 5806 5806 5807 5807 5807 5806 5806 5806 5806 5806 5806 5806 5806 5805 5804 5803 5802 5801 5799 5798 5796 5795 5793
5778 5780 5782 5785 5786 5788 5790 5790 5792 5793 5794 5795 5796 5796 5797 5797 5797 5798 5798 5798 5799 5799 5800 5800 5800 5800 5800 5800 5800 5800 5800 5799 5799 5799 5799 5798 5797 5796 5794 5793 5791 5790 5788 5787
5770 5772 5775 5777 5779 5781 5782 5782 5783 5785 5786 5787 5788 5789 5789 5789 5790 5790 5791 5791 5791 5792 5792 5792 5793 5793 5793 5793 5793 5793 5793 5792 5792 5792 5792 5791 5790 5789 5787 5786 5784 5783 5781 5780
5764 5766 5769 5769 5771 5773 5773 5774 5775 5777 5777 5778 5779 5779 5780 5781 5782 5783 5783 5784 5784 5784 5784 5785 5785 5785 5786 5786 5786 5786 5786 5785 5785 5785 5785 5784 5783 5782 5780 5778 5777 5775 5774 5772
5756 5759 5760 5760 5761 5762 5764 5765 5767 5768 5768 5770 5770 5771 5771 5773 5773 5774 5775 5776 5776 5775 5776 5776 5777 5777 5778 5778 5778 5778 5778 5777 5777 5777 5776 5776 5775 5774 5772 5771 5769 5768 5766 5764
5748 5749 5751 5753 5753 5754 5755 5756 5757 5758 5759 5761 5761 5762 5762 5763 5763 5764 5765 5766 5767 5767 5767 5767 5768 5768 5769 5769 5769 5769 5769 5769 5769 5769 5768 5767 5766 5765 5764 5762 5761 5759 5758 5756
5740 5742 5743 5744 5745 5746 5747 5748 5749 5750 5751 5751 5751 5751 5752 5752 5753 5754 5755 5756 5757 5757 5757 5758 5759 5760 5760 5760 5760 5760 5760 5760 5760 5760 5759 5758 5758 5756 5755 5754 5752 5751 5749 5747
5732 5733 5734 5736 5738 5738 5739 5739 5741 5742 5741 5742 5743 5743 5743 5743 5743 5744 5745 5746 5747 5747 5748 5749 5750 5751 5751 5751 5751 5751 5751 5751 5751 5750 5750 5749 5749 5748 5746 5745 5743 5741 5740 5738
5725 5726 5727 5728 5729 5729 5730 5731 5732 5732 5732 5733 5734 5734 5734 5734 5735 5736 5736 5737 5738 5738 5739 5740 5741 5741 5742 5742 5741 5742 5742 5741 5741 5741 5740 5740 5739 5738 5737 5736 5734 5732 5730 5728
5717 5718 5719 5720 5721 5721 5722 5723 5723 5724 5724 5724 5725 5725 5725 5726 5726 5727 5727 5728 5729 5730 5731 5732 5732 5732 5732 5732 5732 5732 5732 5732 5732 5731 5731 5730 5729 5728 5727 5725 5724 5722 5721 5719
5709 5709 5710 5711 5712 5712 5713 5714 5715 5715 5716 5716 5716 5716 5717 5717 5718 5718 5719 5719 5720 5721 5722 5723 5723 5723 5723 5723 5723 5723 5723 5722 5722 5721 5721 5720 5718 5717 5716 5715 5713 5712 5710 5709
5700 5700 5701 5702 5703 5704 5705 5705 5706 5706 5707 5707 5707 5708 5709 5709 5709 5709 5710 5711 5712 5712 5712 5713 5713 5713 5713 5713 5713 5713 5713 5712 5711 5711 5710 5709 5708 5707 5705 5704 5702 5701 5700 5698
5692 5692 5693 5693 5694 5695 5695 5696 5697 5697 5697 5698 5699 5699 5700 5700 5701 5701 5701 5702 5703 5704 5703 5704 5704 5704 5704 5704 5704 5703 5703 5702 5701 5700 5700 5698 5697 5696 5694 5693 5691 5690 5689 5688
5684 5684 5685 5685 5685 5686 5686 5687 5687 5688 5688 5689 5690 5690 5690 5691 5692 5692 5693 5693 5694 5694 5694 5694 5695 5695 5695 5694 5694 5693 5692 5692 5691 5690 5689 5687 5686 5685 5683 5682 5681 5680 5678 5677
5676 5676 5676 5676 5677 5677 5677 5678 5678 5679 5679 5680 5680 5681 5681 5682 5683 5683 5684 5684 5684 5685 5685 5685 5685 5685 5685 5685 5684 5683 5682 5681 5680 5679 5678 5677 5675 5674 5673 5672 5670 5669 5668 5667
5668 5668 5668 5668 5668 5668 5669 5669 5670 5670 5670 5671 5671 5672 5672 5672 5673 5674 5674 5674 5674 5675 5675 5675 5675 5675 5675 5675 5674 5674 5672 5671 5671 5669 5668 5666 5665 5664 5662 5661 5660 5659 5658 5657
5661 5661 5660 5660 5660 5661 5660 5661 5661 5662 5662 5662 5662 5663 5663 5663 5664 5664 5664 5665 5665 5665 5665 5665 5665 5665 5665 5665 5664 5664 5663 5662 5661 5659 5658 5657 5655 5654 5652 5651 5650 5649 5648 5646
5654 5654 5653 5653 5653 5653 5653 5653 5654 5653 5654 5654 5654 5654 5654 5654 5655 5655 5655 5656 5657 5657 5656 5656 5656 5656 5656 5656 5655 5654 5653 5652 5651 5650 5648 5647 5645 5644 5642 5641 5640 5639 5637 5636
5648 5647 5647 5646 5646 5646 5646 5646 5646 5646 5646 5646 5646 5645 5645 5646 5646 5646 5647 5647 5647 5647 5647 5647 5647 5647 5647 5646 5646 5645 5644 5643 5642 5640 5639 5637 5635 5634 5633 5631 5630 5629 5627 5626
5642 5641 5641 5640 5640 5640 5639 5639 5639 5638 5638 5637 5637 5637 5638 5638 5638 5638 5638 5638 5638 5638 5638 5638 5639 5639 5638 5637 5637 5636 5635 5634 5632 5631 5629 5628 5626 5625 5624 5622 5621 5620 5618 5616
5636 5636 5635 5635 5634 5633 5633 5632 5631 5631 5630 5630 5630 5630 5630 5630 5630 5630 5630 5630 5629 5630 5630 5630 5630 5630 5629 5629 5628 5627 5626 5625 5624 5623 5621 5620 5618 5617 5615 5614 5612 5611 5609 5607
5631 5631 5630 5629 5628 5627 5627 5626 5625 5625 5625 5624 5624 5624 5623 5622 5622 5622 5622 5622 5622 5622 5622 5622 5622 5622 5621 5621 5620 5619 5618 5617 5616 5615 5614 5613 5611 5609 5608 5606 5604 5602 5600 5598
5627 5626 5625 5624 5623 5622 5621 5621 5620 5620 5619 5618 5618 5617 5616 5616 5616 5615 5615 5615 5614 5614 5614 5614 5614 5614 5614 5613 5613 5612 5611 5610 5609 5608 5606 5605 5603 5602 5600 5597 5595 5593 5591 5590